Spokane Felts, WA

12:32 PM PDT on June 25, 2017 (GMT -0700)
Felts

Weather History for KSFF - March, 2014

Change the Weather History Date:

Monday, March 31, 2014

  Actual Average Record
Temperature  
Mean Temperature 44 °F 44 °F  
Max Temperature 56 °F 54 °F 70 °F (2013)
Min Temperature 31 °F 35 °F 26 °F (1999)
Degree Days  
Heating Degree Days 21 21  
Month to date heating degree days 733 751  
Since 1 July heating degree days 5412 5321  
Cooling Degree Days 0 0  
Month to date cooling degree days 0 0  
Year to date cooling degree days 0 0  
Moisture  
Dew Point 28 °F    
Average Humidity 59    
Maximum Humidity 89    
Minimum Humidity 29    
Precipitation  
Precipitation 0.00 in 0.06 in 0.23 in (2012)
Month to date precipitation 2.81 1.57  
Year to date precipitation 5.45 4.90  
Sea Level Pressure  
Sea Level Pressure 29.90 in    
Wind  
Wind Speed 3 mph (NE)    
Max Wind Speed 10 mph    
Max Gust Speed 13 mph    
Visibility 10 miles    
Events      
T = Trace of Precipitation, MM = Missing Value Source: NWS Daily Summary

Daily Weather History Graph

Daily Weather History Graph

Search for Another Location

Airport or City:

Trip Planner

Search our weather history database for the weather conditions in past years. The results will help you decide how hot, cold, wet, or windy it might be!

Date:

Astronomy

Mar. 31, 2014 Rise Set
Actual Time 6:29 AM PDT 7:17 PM PDT
Civil Twilight 5:58 AM PDT 7:49 PM PDT
Nautical Twilight 5:21 AM PDT 8:26 PM PDT
Astronomical Twilight 4:42 AM PDT 9:05 PM PDT
Moon 6:51 AM PDT (3/31) 8:48 PM PDT (3/31)
Length of Visible Light 13h 50m
Length of Day
12h 48m
New Moon, 1% of the Moon is Illuminated
Mar 31
New Moon
Apr 7
First Quarter
Apr 15
Full
Apr 22
Last Quarter
Apr 28
New

Hourly Weather History & Observations

Time (PDT) Temp. Windchill Dew Point Humidity Pressure Visibility Wind Dir Wind Speed Gust Speed Precip Events Conditions
12:53 AM 41.0 °F 39.0 °F 30.0 °F 65% 29.97 in 10.0 mi ENE 3.5 mph - N/A   Overcast
1:53 AM 42.1 °F 37.1 °F 28.0 °F 58% 29.97 in 10.0 mi SSE 8.1 mph - N/A   Scattered Clouds
2:53 AM 37.0 °F 33.3 °F 28.9 °F 73% 29.98 in 10.0 mi NE 4.6 mph - N/A   Clear
3:53 AM 36.0 °F 32.1 °F 28.0 °F 73% 29.99 in 10.0 mi NE 4.6 mph - N/A   Clear
4:53 AM 34.0 °F 31.0 °F 28.0 °F 79% 29.99 in 10.0 mi NE 3.5 mph - N/A   Clear
5:53 AM 33.1 °F 30.0 °F 28.9 °F 85% 29.99 in 10.0 mi NE 3.5 mph - N/A   Clear
6:53 AM 32.0 °F - 28.9 °F 88% 30.00 in 10.0 mi Calm Calm - N/A   Clear
7:53 AM 34.0 °F - 30.0 °F 85% 30.00 in 10.0 mi Calm Calm - N/A   Clear
8:53 AM 39.0 °F - 32.0 °F 76% 30.00 in 10.0 mi Calm Calm - N/A   Clear
9:53 AM 44.1 °F 42.5 °F 34.0 °F 68% 29.99 in 10.0 mi Variable 3.5 mph - N/A   Partly Cloudy
10:53 AM 48.9 °F - 30.9 °F 50% 29.96 in 10.0 mi ENE 5.8 mph - N/A   Partly Cloudy
11:53 AM - - 46.4 °F N/A% 29.93 in 10.0 mi North - - N/A   Unknown
12:53 PM 52.0 °F - 24.1 °F 34% 29.91 in 10.0 mi NE 5.8 mph - N/A   Mostly Cloudy
1:53 PM 54.0 °F - 24.1 °F 31% 29.88 in 10.0 mi Variable 3.5 mph - N/A   Scattered Clouds
2:53 PM 54.0 °F - 23.0 °F 30% 29.86 in 10.0 mi NE 5.8 mph - N/A   Scattered Clouds
3:53 PM 55.0 °F - 24.1 °F 30% 29.83 in 10.0 mi NNE 4.6 mph - N/A   Partly Cloudy
4:53 PM 54.0 °F - 24.1 °F 31% 29.83 in 10.0 mi North - - N/A   Overcast
5:53 PM 54.0 °F - 25.0 °F 33% 29.82 in 10.0 mi ENE 9.2 mph - N/A   Overcast
6:53 PM 48.9 °F - 26.1 °F 41% 29.81 in 10.0 mi NNE 3.5 mph - N/A   Scattered Clouds
7:53 PM 45.0 °F 43.5 °F 26.1 °F 48% 29.81 in 10.0 mi North 3.5 mph - N/A   Scattered Clouds
8:53 PM 39.9 °F 35.8 °F 28.0 °F 63% 29.81 in 10.0 mi NNE 5.8 mph - N/A   Clear
9:53 PM 39.0 °F - 28.0 °F 65% 29.80 in 10.0 mi Calm Calm - N/A   Clear
10:53 PM 37.0 °F - 27.0 °F 67% 29.80 in 10.0 mi Calm Calm - N/A   Clear
11:53 PM 35.1 °F - 26.1 °F 70% 29.79 in 10.0 mi Calm Calm - N/A   Clear